[[{"header":{"parameterUnit":"m.s-1","parameterCategory":1,"la1":30.2991,"la2":30.254,"lo1":-89.0895,"lo2":-89.0444,"dy":0.0017,"dx":0.0017,"nx":28,"ny":28,"refTime":"2024-12-16T09:00:00:Z","depth":0,"parameterNumber":2,"parameterNumberName":"U-component_of_WINDS"},"data":[0,0,0,0,0,0,0,0,0,0,0,0,0,0,0,0,0,0,0,0,0,0,0,0,0,0,0,0,0,0,0,0,0,0,0,0,0,0,0,0,0,0,0,0,0,0,0,0,0,0,0,0,0,0,0,0,0,0,-2.7494,-2.7494,0,-2.7486,-2.7486,-2.7486,-2.7437,-2.7436,-2.7435,-2.7434,-2.7427,-2.7428,-2.7429,0,0,0,0,0,0,0,0,0,0,0,0,0,-2.7473,-2.7474,-2.7494,-2.7494,-2.7494,-2.7486,-2.7486,-2.7486,-2.7437,-2.7436,-2.7435,-2.7433,-2.7427,-2.7428,-2.7429,0,0,0,0,0,0,0,0,0,0,0,0,0,-2.7475,-2.7474,-2.7494,-2.7469,-2.7467,-2.7486,-2.7486,-2.7485,-2.7438,-2.7436,-2.7434,-2.7433,-2.7427,-2.7428,-2.743,-2.7473,0,0,-2.7434,-2.7434,0,0,0,0,0,0,0,0,-2.7475,-2.7476,-2.7473,-2.7471,-2.7468,-2.7461,-2.7476,-2.7481,-2.7438,-2.7449,-2.7434,-2.7432,-2.744,-2.744,-2.7443,-2.7473,-2.7472,-2.7434,-2.7435,-2.7435,-2.7436,0,0,0,0,0,0,0,-2.7475,-2.7476,-2.7491,-2.7473,-2.747,-2.7459,-2.7458,-2.7477,-2.7454,-2.7448,-2.7444,-2.7444,-2.7439,-2.7441,-2.7442,-2.7472,-2.7434,-2.7435,-2.7436,-2.7436,-2.754,-2.7542,0,0,0,0,0,0,-2.7478,-2.7476,-2.7491,-2.7491,-2.7467,-2.7461,-2.7459,-2.7465,-2.7454,-2.7451,-2.7445,-2.7441,-2.744,-2.7441,-2.7442,-2.7493,-2.7435,-2.7437,-2.7437,-2.7539,-2.7541,-2.7543,0,0,0,0,0,0,-2.7478,-2.748,-2.7492,-2.7483,-2.7483,-2.7463,-2.747,-2.7466,-2.7468,-2.7452,-2.7448,-2.7452,-2.7439,-2.744,-2.7466,-2.7492,-2.7437,-2.7438,-2.7536,-2.7539,-2.7542,-2.7594,0,0,0,0,0,0,-2.7477,-2.748,-2.7495,-2.7483,-2.7484,-2.7515,-2.7472,-2.7467,-2.7471,-2.7466,-2.7457,-2.7454,-2.7437,-2.7464,-2.7467,-2.7493,-2.744,-2.7534,-2.7538,-2.7541,-2.759,-2.7599,-2.7606,0,0,0,0,0,-2.7477,-2.751,-2.7496,-2.7498,-2.7502,-2.7516,-2.7517,-2.7495,-2.7473,-2.7488,-2.7479,-2.7455,-2.7489,-2.7467,-2.747,-2.7496,-2.7532,-2.7537,-2.7541,-2.7587,-2.7597,-2.7606,0,0,0,0,0,0,-2.7525,-2.7508,-2.7492,-2.7522,-2.7521,-2.7508,-2.7526,-2.7507,-2.7512,-2.7507,-2.7482,-2.7481,-2.7511,-2.7507,-2.7483,-2.7539,-2.7507,-2.7512,-2.7541,-2.755,-2.7558,-2.7558,-2.7441,0,0,0,0,0,-2.754,-2.7551,-2.7536,-2.7565,-2.7565,-2.7546,-2.7551,-2.7536,-2.7534,-2.7533,-2.7525,-2.7525,-2.7536,-2.7543,-2.7552,-2.7591,-2.7589,-2.7611,-2.7618,-2.7625,-2.7629,-2.7651,-2.7661,-2.7557,-2.7557,-2.7557,0,0,-2.7569,-2.7561,-2.757,-2.7574,-2.7571,-2.7585,-2.7546,-2.7562,-2.7572,-2.7535,-2.7559,-2.7554,-2.7553,-2.7586,-2.76,-2.7583,-2.7658,-2.7631,-2.7636,-2.7636,-2.7656,-2.7666,-2.7675,-2.756,-2.756,-2.7559,0,0,-2.7629,-2.7625,-2.7648,-2.7646,-2.7643,-2.7631,-2.7637,-2.7627,-2.7622,-2.7646,-2.7619,-2.7633,-2.7651,-2.7652,-2.7654,-2.772,-2.7698,-2.7724,-2.7764,-2.7785,-2.7794,-2.7801,-2.7824,-2.7833,-2.7728,-2.7728,-2.7729,0,-2.7666,-2.7685,-2.7663,-2.7681,-2.7684,-2.7652,-2.7677,-2.7677,-2.7677,-2.7681,-2.7662,-2.7687,-2.7683,-2.7717,-2.7733,-2.7736,-2.7743,-2.7723,-2.7794,-2.7801,-2.7807,-2.7829,-2.7838,-2.7731,-2.7731,-2.7731,-2.7731,0,-2.7731,-2.7745,-2.7765,-2.7765,-2.7771,-2.7793,-2.7775,-2.7785,-2.777,-2.7761,-2.7787,-2.7782,-2.779,-2.7798,-2.7783,-2.783,-2.782,-2.7798,-2.7764,-2.7821,-2.7841,-2.7849,-2.7736,-2.7735,-2.7734,-2.7733,0,0,-2.7818,-2.7809,-2.7816,-2.7817,-2.7812,-2.7823,-2.7845,-2.7853,-2.7861,-2.7864,-2.7882,-2.79,-2.7881,-2.7884,-2.787,-2.7889,-2.7942,-2.7866,-2.7865,-2.788,-2.7995,-2.801,-2.802,-2.7929,-2.7931,-2.7932,-2.7995,0,-2.7876,-2.791,-2.7892,-2.7929,-2.7943,-2.7915,-2.7934,-2.7934,-2.7927,-2.7939,-2.7932,-2.7945,-2.7919,-2.7921,-2.7939,-2.7932,-2.7965,-2.7927,-2.7946,-2.7947,-2.7946,-2.8031,-2.8046,-2.8106,-2.8003,-2.8004,-2.8005,0,-2.7946,-2.7952,-2.799,-2.7985,-2.799,-2.8007,-2.8014,-2.8026,-2.8027,-2.8021,-2.8026,-2.8008,-2.8031,-2.8,-2.8032,-2.8007,-2.8014,-2.8013,-2.8015,-2.8014,-2.7978,-2.8032,-2.8124,-2.8133,-2.8017,-2.8016,-2.8015,0,-2.8006,-2.8023,-2.8048,-2.805,-2.8045,-2.8058,-2.8057,-2.8056,-2.8063,-2.807,-2.8074,-2.8085,-2.809,-2.81,-2.8086,-2.8064,-2.8121,-2.8087,-2.8117,-2.8117,-2.8128,-2.8127,-2.8222,-2.8135,-2.8135,-2.8135,-2.8135,0,-2.8071,-2.8096,-2.8075,-2.8091,-2.8119,-2.81,-2.8128,-2.8124,-2.8125,-2.814,-2.8118,-2.8133,-2.8115,-2.813,-2.812,-2.8149,-2.8152,-2.8148,-2.8145,-2.8149,-2.815,-2.8152,-2.8148,-2.8137,-2.8137,-2.8136,-2.8136,0,-2.8141,-2.8128,-2.8154,-2.8148,-2.8147,-2.8168,-2.8163,-2.8179,-2.8172,-2.8192,-2.8196,-2.8185,-2.8201,-2.8189,-2.8206,-2.8199,-2.8237,-2.8229,-2.8236,-2.8233,-2.8263,-2.8261,-2.8362,-2.8375,-2.8281,-2.8282,-2.8283,0,-2.8182,-2.82,-2.8197,-2.8205,-2.8205,-2.822,-2.8227,-2.8211,-2.8219,-2.8224,-2.8239,-2.8253,-2.8264,-2.8292,-2.8286,-2.8299,-2.8291,-2.8326,-2.8292,-2.8297,-2.8291,-2.829,-2.8292,-2.8332,-2.8333,-2.8334,-2.8334,0,-2.8257,-2.8251,-2.8261,-2.8271,-2.828,-2.8286,-2.8291,-2.83,-2.8284,-2.8296,-2.8312,-2.832,-2.8338,-2.8353,-2.8364,-2.8365,-2.8348,-2.8345,-2.8353,-2.8357,-2.836,-2.8358,-2.8253,-2.8342,-2.8342,-2.8341,-2.8341,-2.834,-2.8314,-2.8329,-2.8329,-2.8343,-2.8345,-2.8351,-2.8365,-2.8361,-2.8374,-2.8386,-2.8377,-2.8396,-2.84,-2.8414,-2.8417,-2.8434,-2.842,-2.8431,-2.8433,-2.8436,-2.844,-2.8359,-2.8436,-2.8436,-2.8436,-2.8436,-2.8435,0,-2.8387,-2.8387,-2.8399,-2.8407,-2.8418,-2.8402,-2.8407,-2.8418,-2.8435,-2.844,-2.8451,-2.8472,-2.8487,-2.8484,-2.8499,-2.8513,-2.8506,-2.8517,-2.8515,-2.8516,-2.8452,-2.8443,-2.8523,-2.8523,-2.8523,-2.8523,-2.8523,-2.8523,-2.8426,-2.8452,-2.8446,-2.8474,-2.8474,-2.8493,-2.8498,-2.8504,-2.8508,-2.8531,-2.8543,-2.8542,-2.8544,-2.8559,-2.8574,-2.8573,-2.8579,-2.8594,-2.859,-2.8529,-2.852,-2.8512,-2.8504,-2.8595,-2.8595,-2.8653,-2.8653,-2.8654]},{"header":{"parameterUnit":"m.s-1","parameterCategory":1,"la1":30.2991,"la2":30.254,"lo1":-89.0895,"lo2":-89.0444,"dy":0.0017,"dx":0.0017,"nx":28,"ny":28,"refTime":"2024-12-16T09:00:00:Z","depth":0,"parameterNumber":3,"parameterNumberName":"V-component_of_WINDS"},"data":[0,0,0,0,0,0,0,0,0,0,0,0,0,0,0,0,0,0,0,0,0,0,0,0,0,0,0,0,0,0,0,0,0,0,0,0,0,0,0,0,0,0,0,0,0,0,0,0,0,0,0,0,0,0,0,0,0,0,0.5856,0.5856,0,0.5791,0.579,0.579,0.5778,0.5779,0.578,0.578,0.571,0.5707,0.5705,0,0,0,0,0,0,0,0,0,0,0,0,0,0.597,0.5968,0.5856,0.5856,0.5855,0.5791,0.579,0.5789,0.5778,0.5779,0.578,0.578,0.571,0.5708,0.5705,0,0,0,0,0,0,0,0,0,0,0,0,0,0.5914,0.5967,0.5856,0.5842,0.584,0.5791,0.579,0.5789,0.5778,0.5779,0.578,0.5781,0.5711,0.5708,0.5704,0.5665,0,0,0.5693,0.5692,0,0,0,0,0,0,0,0,0.5917,0.591,0.5845,0.5843,0.584,0.5794,0.5804,0.5747,0.5778,0.5801,0.578,0.5781,0.5737,0.5731,0.5717,0.5662,0.5659,0.5693,0.5691,0.5689,0.5688,0,0,0,0,0,0,0,0.5921,0.5913,0.583,0.5844,0.5841,0.5838,0.5831,0.5794,0.5765,0.5799,0.5798,0.5791,0.5736,0.572,0.5715,0.5658,0.5693,0.569,0.5688,0.5686,0.557,0.5569,0,0,0,0,0,0,0.5928,0.5916,0.5832,0.5828,0.5882,0.5835,0.5827,0.5808,0.5765,0.576,0.579,0.5791,0.5726,0.5719,0.5713,0.5665,0.5689,0.5686,0.5684,0.5571,0.5569,0.5568,0,0,0,0,0,0,0.5931,0.5921,0.5835,0.5872,0.5861,0.5832,0.581,0.5806,0.5791,0.5759,0.5753,0.578,0.5727,0.5718,0.5678,0.5663,0.5684,0.5681,0.5572,0.557,0.5569,0.5569,0,0,0,0,0,0,0.5934,0.5922,0.5907,0.5872,0.5859,0.5802,0.5809,0.5804,0.5785,0.5785,0.5748,0.5742,0.5727,0.5683,0.5674,0.5658,0.5678,0.5573,0.5571,0.5569,0.5571,0.5568,0.5566,0,0,0,0,0,0.5938,0.5908,0.5906,0.5896,0.584,0.5801,0.5793,0.5777,0.5784,0.5768,0.5748,0.5743,0.5666,0.5679,0.5669,0.5652,0.5574,0.5572,0.557,0.5572,0.5569,0.5566,0,0,0,0,0,0,0.594,0.5903,0.59,0.5858,0.5833,0.5799,0.5779,0.5774,0.5745,0.5746,0.5726,0.5718,0.5679,0.5661,0.5677,0.5613,0.562,0.5616,0.5626,0.5622,0.562,0.5625,0.5675,0,0,0,0,0,0.5936,0.5908,0.5877,0.5843,0.5831,0.5807,0.579,0.578,0.5752,0.5741,0.5718,0.569,0.566,0.564,0.561,0.5569,0.5561,0.5552,0.5549,0.5548,0.5544,0.5522,0.5518,0.5562,0.5562,0.5562,0,0,0.5926,0.5903,0.5886,0.5843,0.5822,0.5794,0.5798,0.5767,0.5746,0.5736,0.5697,0.568,0.5648,0.5607,0.5588,0.5591,0.5531,0.5545,0.5544,0.5541,0.552,0.5516,0.5512,0.556,0.556,0.5561,0,0,0.5894,0.5874,0.5844,0.5824,0.5793,0.5778,0.5771,0.5739,0.5727,0.5689,0.5681,0.5655,0.5603,0.5582,0.5564,0.5527,0.5522,0.5518,0.5506,0.5485,0.5482,0.5479,0.5466,0.5462,0.5515,0.5515,0.5515,0,0.5886,0.5843,0.5829,0.5799,0.5781,0.5773,0.5743,0.5724,0.5684,0.5672,0.5676,0.5613,0.559,0.5546,0.5537,0.5523,0.5514,0.5522,0.5484,0.548,0.5477,0.5465,0.5461,0.5515,0.5515,0.5515,0.5515,0,0.5835,0.5806,0.5786,0.5751,0.573,0.57,0.5681,0.5662,0.5655,0.5639,0.5601,0.5575,0.5541,0.553,0.5521,0.5484,0.5487,0.5488,0.5495,0.5473,0.5462,0.5457,0.5514,0.5514,0.5514,0.5514,0,0,0.58,0.576,0.5753,0.5738,0.5705,0.5682,0.5652,0.562,0.5605,0.5579,0.5554,0.5512,0.5513,0.5493,0.5482,0.5464,0.5438,0.5467,0.5466,0.5463,0.5397,0.5397,0.5392,0.5435,0.5434,0.5433,0.54,0,0.5765,0.5714,0.5701,0.5657,0.5631,0.5624,0.5598,0.5575,0.5561,0.5536,0.552,0.5491,0.5494,0.5482,0.5464,0.5445,0.5425,0.5447,0.5411,0.541,0.5419,0.5386,0.5385,0.5355,0.5395,0.5395,0.5394,0,0.5717,0.5692,0.5646,0.5619,0.5607,0.5585,0.5556,0.5532,0.5506,0.5497,0.5477,0.5468,0.5438,0.5448,0.5405,0.5421,0.5406,0.5395,0.5393,0.5389,0.5401,0.5381,0.5344,0.534,0.5387,0.5387,0.5388,0,0.5697,0.5652,0.5619,0.5607,0.5574,0.5558,0.5544,0.5519,0.5502,0.5476,0.5465,0.5436,0.542,0.5397,0.5381,0.539,0.5341,0.5349,0.5333,0.5333,0.5322,0.5323,0.5283,0.5312,0.5312,0.5312,0.5312,0,0.5659,0.5631,0.5611,0.559,0.5559,0.5546,0.5515,0.55,0.5479,0.5455,0.5447,0.5425,0.5406,0.5382,0.5369,0.5337,0.5329,0.5321,0.5318,0.5322,0.5323,0.5311,0.5313,0.5311,0.5311,0.5311,0.5312,0,0.5632,0.5617,0.5581,0.5554,0.5547,0.5525,0.5502,0.5482,0.5468,0.5439,0.5431,0.5409,0.5381,0.5363,0.5326,0.5318,0.5282,0.528,0.5291,0.529,0.5275,0.5277,0.5226,0.5219,0.5253,0.5252,0.5252,0,0.5609,0.5587,0.5559,0.5544,0.553,0.5505,0.5488,0.5474,0.5456,0.5427,0.5411,0.5382,0.5358,0.5313,0.5293,0.5265,0.5262,0.5246,0.5258,0.5263,0.5263,0.5264,0.5262,0.5244,0.5244,0.5244,0.5243,0,0.5569,0.5564,0.554,0.5515,0.5495,0.5474,0.5453,0.544,0.5423,0.5404,0.5375,0.5357,0.5321,0.5292,0.5263,0.5248,0.5243,0.5241,0.5235,0.5239,0.5247,0.5243,0.5286,0.5241,0.5242,0.5242,0.5242,0.5242,0.5543,0.5525,0.5503,0.5478,0.5461,0.5442,0.5423,0.5408,0.5385,0.5355,0.5348,0.5319,0.5295,0.5256,0.524,0.5217,0.5219,0.5211,0.5209,0.5207,0.5208,0.5251,0.5211,0.5211,0.5211,0.5211,0.5211,0,0.5504,0.5491,0.5468,0.544,0.542,0.5419,0.5396,0.538,0.5354,0.5334,0.5311,0.5279,0.5252,0.5232,0.5205,0.519,0.5187,0.5183,0.5184,0.5181,0.5206,0.5214,0.5186,0.5186,0.5186,0.5186,0.5186,0.5186,0.5482,0.5451,0.5444,0.5405,0.5391,0.5364,0.5351,0.5334,0.5317,0.5283,0.5261,0.5249,0.5228,0.52,0.5175,0.517,0.516,0.5157,0.5151,0.5176,0.5178,0.5181,0.5188,0.5155,0.5155,0.5127,0.5127,0.5127]}]]